This is the latest recevied weather packets stored in our database for station/object S56VIL-11. If no packets are shown the sender has not sent any weather packets the latest 10 day(s).
| Time | Temp. | Humidity | Pressure | Rain* | Wind** | Luminosity | Snow |
|---|---|---|---|---|---|---|---|
| 1777846242 | 13.33° C | 53% | 1029.8 hPa | - | - | - | - |
| 1777845345 | 13.33° C | 53% | 1029.8 hPa | - | - | - | - |
| 1777844442 | 13.33° C | 54% | 1029.8 hPa | - | - | - | - |
| 1777843545 | 13.33° C | 53% | 1029.8 hPa | - | - | - | - |
| 1777842642 | 12.78° C | 53% | 1029.7 hPa | - | - | - | - |
| 1777841745 | 12.78° C | 54% | 1029.6 hPa | - | - | - | - |
| 1777840842 | 12.22° C | 54% | 1029.6 hPa | - | - | - | - |
| 1777839944 | 12.22° C | 53% | 1029.6 hPa | - | - | - | - |
| 1777839042 | 12.22° C | 53% | 1029.7 hPa | - | - | - | - |
| 1777838144 | 12.22° C | 54% | 1029.8 hPa | - | - | - | - |
| 1777837242 | 12.22° C | 53% | 1029.9 hPa | - | - | - | - |
| 1777836344 | 12.78° C | 54% | 1029.8 hPa | - | - | - | - |
| 1777835442 | 12.78° C | 53% | 1029.8 hPa | - | - | - | - |
| 1777834543 | 12.78° C | 53% | 1029.7 hPa | - | - | - | - |
| 1777833642 | 13.33° C | 53% | 1029.7 hPa | - | - | - | - |
| 1777832743 | 13.89° C | 53% | 1029.6 hPa | - | - | - | - |
| 1777831848 | 14.44° C | 52% | 1029.7 hPa | - | - | - | - |
| 1777831841 | 14.44° C | 52% | 1029.7 hPa | - | - | - | - |
| 1777830942 | 15° C | 52% | 1029.7 hPa | - | - | - | - |
| 1777830041 | 15° C | 52% | 1029.8 hPa | - | - | - | - |
| 1777829142 | 15.56° C | 52% | 1029.6 hPa | - | - | - | - |
| 1777828241 | 16.11° C | 52% | 1029.7 hPa | - | - | - | - |
| 1777827342 | 17.22° C | 52% | 1029.6 hPa | - | - | - | - |
| 1777826441 | 20° C | 51% | 1029.4 hPa | - | - | - | - |
| 1777825541 | 21.11° C | 51% | 1029.4 hPa | - | - | - | - |
* Rain since midnight (hover to see other rain measurements)
** Current wind speed in m/s (hover to see current wind gust speed)